Location: Eyeline Observatory
(43.2182°N, 78.8632°W)
Time: 05:51:43
(UTC-04:00)

Vanguard 1 - Visible Passes

Search period start: 23 October 2017 00:00
Search period end: 02 November 2017 00:00
Orbit: 650 x 3834 km, 34.3° (Epoch: 21 October)

Date Brightness Start Highest point End Pass type
(mag) Time Alt. Az. Time Alt. Az. Time Alt. Az.
23 Oct 12.8 02:29:55 50° ESE 02:29:55 50° ESE 02:46:05 10° E visible
23 Oct 12.5 04:42:38 47° WSW 04:49:19 60° SSW 05:12:13 10° ESE visible
23 Oct 13.4 06:55:40 10° W 07:14:19 39° SW 07:33:49 10° SSE visible
24 Oct 13.8 00:37:06 15° E 00:37:06 15° E 00:39:47 10° E visible
24 Oct 12.7 02:49:50 55° SE 02:49:50 55° SE 03:07:39 10° ESE visible
24 Oct 12.7 05:02:33 40° WSW 05:10:38 56° SSW 05:33:08 10° SE visible
25 Oct 13.7 00:57:03 19° E 00:57:03 19° E 01:01:33 10° E visible
25 Oct 12.5 03:09:47 59° SSE 03:09:47 59° SSE 03:29:08 10° ESE visible
25 Oct 12.8 05:22:30 34° WSW 05:31:53 51° SSW 05:53:47 10° SE visible
26 Oct 13.5 01:17:02 23° E 01:17:02 23° E 01:23:15 10° E visible
26 Oct 12.5 03:29:46 60° S 03:29:46 60° S 03:50:28 10° ESE visible
26 Oct 12.9 05:42:30 28° WSW 05:53:02 44° SSW 06:14:08 10° SE visible
27 Oct 13.4 01:37:04 27° ESE 01:37:04 27° ESE 01:44:54 10° E visible
27 Oct 12.5 03:49:48 58° S 03:49:48 58° S 04:11:39 10° ESE visible
27 Oct 13.1 06:02:32 22° W 06:14:05 38° SSW 06:34:05 10° SSE visible
28 Oct 13.3 01:57:08 31° ESE 01:57:08 31° ESE 02:06:29 10° ESE visible
28 Oct 12.5 04:09:52 53° SSW 04:10:44 53° SSW 04:32:36 10° SE visible
28 Oct 13.2 06:22:36 17° W 06:35:04 31° SW 06:53:32 10° SSE visible
29 Oct 13.2 02:17:14 35° ESE 02:17:14 35° ESE 02:27:59 10° ESE visible
29 Oct 12.6 04:29:58 47° SW 04:31:58 48° SSW 04:53:16 10° SE visible
29 Oct 13.4 06:42:43 12° W 06:55:58 25° SW 07:12:18 10° S visible
30 Oct 13.0 02:37:22 38° SE 02:37:22 38° SE 02:49:21 10° ESE visible
30 Oct 12.7 04:50:06 40° SW 04:53:09 42° SSW 05:13:36 10° SSE visible
30 Oct 13.6 07:04:56 10° W 07:16:49 18° SW 07:29:59 10° S visible
31 Oct 13.0 02:57:31 39° SE 02:57:31 39° SE 03:10:32 10° ESE visible
31 Oct 12.9 05:10:16 33° SW 05:14:17 35° SSW 05:33:30 10° SSE visible
01 Nov 13.9 01:04:57 11° ESE 01:04:57 11° ESE 01:05:20 10° ESE visible
01 Nov 12.9 03:17:42 40° SSE 03:17:42 40° SSE 03:31:29 10° SE visible
01 Nov 13.1 05:30:27 26° SW 05:35:22 29° SW 05:52:51 10° SSE visible
